EW8958 Weather Reports


time (UTC)temp
C
wind
direction
speed
KPH
gust
KPH
rain 1hr
cm
rain 24hr
cm
rain mn
cm
humidity
%
barometer
mb
20260507195025 19 173 3.2 6.4 0.00 0.33 0.08 30 1005.4
20260507194020 19 153 4.8 9.7 0.00 0.33 0.08 30 1005.3
20260507193027 19 2 4.8 6.4 0.00 0.36 0.08 29 1005.4
20260507192023 19 248 6.4 16.1 0.00 0.38 0.08 29 1005.6
20260507191020 19 278 4.8 8.0 0.00 0.38 0.08 29 1005.6
20260507190020 19 306 4.8 8.0 0.00 0.41 0.08 29 1005.7
20260507185016 19 90 4.8 8.0 0.00 0.43 0.08 29 1005.8
20260507184019 19 299 4.8 6.4 0.00 0.43 0.08 28 1005.8
20260507183032 19 264 6.4 9.7 0.00 0.43 0.08 28 1005.8
20260507182028 18 313 4.8 9.7 0.00 0.43 0.08 29 1006.0
20260507181051 19 305 6.4 14.5 0.00 0.43 0.08 29 1006.0
20260507180032 19 306 4.8 9.7 0.00 0.43 0.08 30 1006.2
20260507175028 19 295 4.8 12.9 0.00 0.43 0.08 30 1006.1
20260507174028 18 307 4.8 9.7 0.00 0.43 0.08 30 1006.1
20260507173049 18 293 6.4 9.7 0.00 0.43 0.08 31 1006.1
20260507172025 18 336 4.8 11.3 0.00 0.43 0.08 31 1006.2
20260507171026 18 269 6.4 11.3 0.00 0.43 0.08 35 1006.4
20260507170022 18 275 4.8 11.3 0.00 0.43 0.08 35 1006.5
20260507165019 18 260 6.4 12.9 0.00 0.43 0.08 37 1006.6
20260507164031 17 279 6.4 9.7 0.00 0.43 0.08 38 1006.7
20260507163042 17 298 4.8 8.0 0.00 0.43 0.08 39 1006.8
20260507162023 17 318 4.8 6.4 0.00 0.43 0.08 42 1006.9
20260507161033 16 287 4.8 8.0 0.00 0.43 0.08 48 1007.0
20260507160054 16 298 4.8 8.0 0.00 0.43 0.08 46 1006.9
20260507155030 16 287 3.2 9.7 0.00 0.43 0.08 49 1006.9
20260507154031 16 314 4.8 8.0 0.00 0.43 0.08 51 1007.0
20260507153054 17 233 4.8 8.0 0.00 0.43 0.08 49 1007.0
20260507152034 16 312 4.8 9.7 0.00 0.43 0.08 52 1007.1
20260507151017 16 285 1.6 4.8 0.00 0.43 0.08 56 1007.1
20260507150018 16 251 3.2 6.4 0.00 0.43 0.08 57 1007.5
20260507145025 15 206 3.2 6.4 0.00 0.43 0.08 56 1007.6
20260507144043 16 149 4.8 8.0 0.00 0.43 0.08 54 1007.5
20260507143017 16 325 3.2 4.8 0.00 0.43 0.08 54 1007.6
20260507142025 16 147 3.2 8.0 0.00 0.43 0.08 56 1007.7
20260507141025 15 324 1.6 4.8 0.00 0.43 0.08 55 1007.7
20260507140049 16 257 4.8 9.7 0.00 0.43 0.08 53 1007.6
20260507135023 15 276 3.2 6.4 0.00 0.43 0.08 55 1007.5
20260507134020 15 191 3.2 6.4 0.00 0.43 0.08 56 1007.5
20260507133021 15 344 3.2 6.4 0.00 0.43 0.08 56 1007.6
20260507132044 15 203 4.8 6.4 0.00 0.43 0.08 57 1007.8
20260507131147 15 298 1.6 4.8 0.00 0.43 0.08 59 1008.0
20260507130024 14 282 3.2 6.4 0.00 0.43 0.08 62 1008.1
20260507125021 13 318 3.2 4.8 0.00 0.43 0.08 63 1008.0
20260507124049 13 258 3.2 6.4 0.00 0.43 0.08 65 1008.0
20260507123023 12 168 3.2 4.8 0.00 0.43 0.08 69 1008.1
20260507122020 12 239 1.6 8.0 0.00 0.43 0.08 73 1008.2
20260507121026 11 296 1.6 4.8 0.00 0.43 0.08 74 1008.1
20260507120027 11 340 3.2 6.4 0.00 0.43 0.08 72 1008.0
20260507115021 11 303 1.6 4.8 0.00 0.43 0.08 74 1008.0
20260507114017 10 265 1.6 6.4 0.00 0.43 0.08 79 1008.1
20260507113033 10 277 3.2 8.0 0.00 0.43 0.08 80 1008.1
20260507112028 10 325 0.0 3.2 0.00 0.43 0.08 83 1007.9
20260507111046 9 0.0 0.0 0.00 0.43 0.08 85 1007.8
20260507110020 9 113 0.0 3.2 0.00 0.43 0.08 85 1008.0
20260507105022 8 0.0 0.0 0.00 0.43 0.08 85 1007.7
20260507104018 8 0.0 3.2 0.00 0.43 0.08 86 1007.2
20260507103018 8 273 1.6 4.8 0.00 0.43 0.08 87 1007.1
20260507102026 8 285 1.6 4.8 0.00 0.43 0.08 88 1007.0
20260507101022 8 243 1.6 4.8 0.00 0.43 0.08 88 1007.2
20260507100017 8 296 3.2 8.0 0.03 0.43 0.08 88 1006.8
20260507095020 8 244 1.6 4.8 0.03 0.43 0.08 88 1007.3
20260507094015 9 279 0.0 4.8 0.03 0.43 0.08 87 1007.3
20260507093018 9 262 1.6 4.8 0.03 0.43 0.08 87 1007.3
20260507092032 9 0.0 0.0 0.03 0.43 0.08 87 1007.2
20260507091016 9 285 1.6 4.8 0.03 0.43 0.08 87 1007.6
20260507090029 9 274 1.6 3.2 0.00 0.41 0.05 87 1007.3
20260507085020 10 90 1.6 4.8 0.00 0.41 0.05 87 1007.1
20260507084022 10 232 3.2 6.4 0.03 0.41 0.05 87 1007.1
20260507083018 10 272 1.6 8.0 0.03 0.41 0.05 88 1007.1
20260507082031 10 214 0.0 3.2 0.03 0.41 0.05 88 1006.8
20260507081016 10 315 0.0 3.2 0.03 0.41 0.05 88 1006.8
20260507080016 10 230 1.6 6.4 0.03 0.41 0.05 88 1007.3
20260507075024 11 223 1.6 6.4 0.03 0.41 0.05 88 1007.0
20260507074040 11 315 0.0 3.2 0.00 0.38 0.03 88 1006.7
20260507073015 11 255 3.2 6.4 0.00 0.38 0.03 87 1006.5
20260507072038 11 0.0 0.0 0.00 0.38 0.03 86 1006.2
20260507071033 11 0.0 1.6 0.00 0.38 0.03 86 1006.3
20260507070033 11 248 0.0 4.8 0.00 0.38 0.03 86 1006.0
20260507065015 11 0.0 0.0 0.00 0.38 0.03 86 1006.3
20260507064030 11 270 0.0 1.6 0.00 0.38 0.03 85 1006.3
20260507063022 11 0.0 0.0 0.00 0.38 0.03 84 1006.4
20260507062022 11 290 1.6 6.4 0.00 0.38 0.03 84 1006.3
20260507061024 11 0.0 0.0 0.00 0.38 0.03 84 1006.3
20260507060026 11 352 1.6 3.2 0.00 0.38 0.03 84 1006.3
20260507055026 11 328 3.2 6.4 0.00 0.38 0.03 84 1006.6
20260507054048 11 339 4.8 8.0 0.00 0.38 0.03 86 1006.4
20260507053023 12 332 3.2 4.8 0.00 0.38 0.03 89 1006.4
20260507052019 12 298 1.6 3.2 0.00 0.38 0.03 91 1006.6
20260507051021 12 269 1.6 4.8 0.00 0.38 0.03 90 1006.4
20260507050017 12 302 3.2 9.7 0.00 0.38 0.03 90 1006.7
20260507045031 12 277 1.6 4.8 0.03 0.38 0.03 90 1006.6
20260507044113 12 270 1.6 4.8 0.03 0.38 0.03 90 1006.4
20260507043036 12 266 1.6 4.8 0.03 0.38 0.03 89 1006.4
20260507042050 13 307 1.6 4.8 0.03 0.38 0.03 89 1006.3
20260507041025 13 258 3.2 8.0 0.03 0.38 0.03 88 1006.6
20260507040048 13 353 4.8 14.5 0.03 0.38 0.03 89 1006.2
20260507035022 14 279 4.8 12.9 0.00 0.36 0.36 93 1005.7
20260507034023 15 240 3.2 6.4 0.00 0.36 0.36 95 1005.9
20260507033024 15 134 3.2 4.8 0.00 0.36 0.36 95 1005.8
20260507032026 15 202 0.0 3.2 0.00 0.36 0.36 95 1005.6
20260507031022 15 201 1.6 6.4 0.00 0.36 0.36 95 1005.2
20260507030019 15 201 3.2 6.4 0.00 0.36 0.36 95 1005.3
20260507025032 15 200 3.2 6.4 0.00 0.36 0.36 95 1005.3
20260507024028 15 318 1.6 3.2 0.00 0.36 0.36 95 1005.4
20260507023024 15 225 1.6 6.4 0.00 0.36 0.36 95 1005.3
20260507022021 15 190 4.8 8.0 0.00 0.36 0.36 95 1005.1
20260507021028 15 174 3.2 6.4 0.00 0.36 0.36 95 1005.0
20260507020029 15 168 3.2 11.3 0.00 0.36 0.36 95 1005.1
20260507015047 15 220 3.2 6.4 0.00 0.36 0.36 95 1005.3
20260507014017 15 194 3.2 6.4 0.00 0.36 0.36 95 1005.3
20260507013019 15 115 3.2 6.4 0.00 0.36 0.36 95 1005.3
20260507012031 15 160 4.8 9.7 0.00 0.36 0.36 95 1005.4
20260507011036 15 175 4.8 8.0 0.00 0.36 0.36 95 1005.4
20260507010038 15 129 6.4 11.3 0.00 0.36 0.36 95 1005.3
20260507005024 15 177 8.0 16.1 0.00 0.36 0.36 95 1005.4
20260507004021 15 189 6.4 11.3 0.00 0.36 0.36 95 1005.2
20260507003021 15 192 6.4 11.3 0.00 0.36 0.36 95 1005.2
20260507002023 15 164 4.8 12.9 0.03 0.36 0.36 95 1005.2
20260507001019 15 169 4.8 8.0 0.03 0.36 0.36 95 1005.1
20260507000022 15 204 6.4 9.7 0.10 0.36 0.36 94 1005.0
20260506235049 15 177 3.2 6.4 0.13 0.36 0.36 94 1005.1
20260506234026 15 126 3.2 6.4 0.13 0.36 0.36 94 1005.0
20260506233027 15 160 4.8 11.3 0.13 0.36 0.36 94 1004.9
20260506232018 15 144 4.8 9.7 0.10 0.33 0.33 93 1004.8
20260506231020 15 165 4.8 9.7 0.13 0.33 0.33 93 1005.0
20260506230043 15 139 6.4 12.9 0.05 0.25 0.25 92 1005.2
20260506225017 15 242 4.8 9.7 0.03 0.23 0.23 92 1005.2
20260506224019 15 129 8.0 14.5 0.03 0.23 0.23 92 1005.3
20260506223026 15 138 6.4 9.7 0.03 0.23 0.23 92 1005.3
20260506222021 15 150 4.8 9.7 0.03 0.23 0.23 91 1005.4
20260506221017 15 179 6.4 9.7 0.00 0.20 0.20 91 1005.4
20260506220019 15 182 6.4 9.7 0.03 0.20 0.20 91 1005.5
20260506215033 15 186 6.4 11.3 0.03 0.20 0.20 91 1005.8
20260506214028 15 162 6.4 9.7 0.03 0.20 0.20 90 1005.7
20260506213024 15 270 4.8 4.8 0.05 0.20 0.20 90 1005.8
20260506212025 16 179 8.0 12.9 0.08 0.20 0.20 90 1006.2
20260506211046 16 219 6.4 9.7 0.08 0.20 0.20 89 1006.1
20260506210029 16 49 4.8 4.8 0.08 0.18 0.18 89 1006.2
20260506205024 16 158 9.7 14.5 0.08 0.18 0.18 89 1006.3
20260506204020 16 122 6.4 8.0 0.08 0.18 0.18 89 1006.3
20260506203015 16 217 11.3 17.7 0.08 0.15 0.15 88 1006.3
20260506202016 16 112 8.0 12.9 0.08 0.13 0.13 86 1006.2
20260506201024 16 131 6.4 11.3 0.08 0.13 0.13 85 1006.1
20260506200021 17 252 6.4 9.7 0.08 0.10 0.10 85 1006.3